Time,TemperatureF,DewpointF,PressureIn,WindDirection,WindDirectionDegrees,WindSpeedMPH,WindSpeedGustMPH,Humidity,HourlyPrecipIn,Conditions,Clouds,dailyrainin,SolarRadiationWatts/m^2,SoftwareType,DateUTC
2013-07-05 00:01:00,78.0,65.0,30.00,North,2,0.0,-999.0,65,-99.99,,,-99.99,0.000000,,2013-07-05 05:01:00,
2013-07-05 00:12:00,78.0,65.0,30.00,North,2,0.0,-999.0,65,-99.99,,,-99.99,0.000000,,2013-07-05 05:12:00,
2013-07-05 00:21:00,77.0,65.0,30.01,NNE,12,0.0,-999.0,66,-99.99,,,-99.99,0.000000,,2013-07-05 05:21:00,
2013-07-05 00:33:00,77.0,65.0,30.01,North,2,0.0,-999.0,67,-99.99,,,-99.99,0.000000,,2013-07-05 05:33:00,
2013-07-05 00:43:00,77.0,65.0,30.01,North,4,0.0,-999.0,67,-99.99,,,-99.99,0.000000,,2013-07-05 05:43:00,
2013-07-05 00:52:00,77.0,66.0,30.01,North,2,0.0,-999.0,68,-99.99,,,-99.99,0.000000,,2013-07-05 05:52:00,
2013-07-05 01:02:00,77.0,66.0,30.01,North,4,0.0,-999.0,68,-99.99,,,-99.99,0.000000,,2013-07-05 06:02:00,
2013-07-05 01:13:00,77.0,66.0,30.01,North,8,0.0,-999.0,68,-99.99,,,-99.99,0.000000,,2013-07-05 06:13:00,
2013-07-05 01:23:00,76.0,65.0,30.01,North,2,0.0,-999.0,69,-99.99,,,-99.99,0.000000,,2013-07-05 06:23:00,
2013-07-05 01:34:00,76.0,65.0,30.01,North,6,0.0,-999.0,69,-99.99,,,-99.99,0.000000,,2013-07-05 06:34:00,
2013-07-05 01:43:00,76.0,65.0,30.01,North,6,0.0,-999.0,69,-99.99,,,-99.99,0.000000,,2013-07-05 06:43:00,
2013-07-05 01:53:00,75.0,65.0,30.00,NNE,12,0.0,-999.0,70,-99.99,,,-99.99,0.000000,,2013-07-05 06:53:00,
2013-07-05 02:02:00,75.0,65.0,30.01,North,2,0.0,-999.0,70,-99.99,,,-99.99,0.000000,,2013-07-05 07:02:00,
2013-07-05 02:12:00,75.0,65.0,30.01,North,6,0.0,-999.0,70,-99.99,,,-99.99,0.000000,,2013-07-05 07:12:00,
2013-07-05 02:23:00,75.0,65.0,30.01,North,9,0.0,-999.0,70,-99.99,,,-99.99,0.000000,,2013-07-05 07:23:00,
2013-07-05 02:33:00,75.0,65.0,30.01,North,9,0.0,-999.0,70,-99.99,,,-99.99,0.000000,,2013-07-05 07:33:00,
2013-07-05 02:43:00,75.0,65.0,30.01,North,9,0.0,-999.0,70,-99.99,,,-99.99,0.000000,,2013-07-05 07:43:00,
2013-07-05 02:53:00,75.0,65.0,30.01,North,9,0.0,-999.0,70,-99.99,,,-99.99,0.000000,,2013-07-05 07:53:00,
2013-07-05 03:02:00,75.0,65.0,30.01,North,9,0.0,-999.0,70,-99.99,,,-99.99,0.000000,,2013-07-05 08:02:00,
2013-07-05 08:13:00,72.0,64.0,30.05,North,354,0.0,-999.0,77,-99.99,,,-99.99,53.000000,,2013-07-05 13:13:00,
2013-07-05 08:24:00,73.0,65.0,30.05,North,353,0.0,-999.0,77,-99.99,,,-99.99,56.000000,,2013-07-05 13:24:00,
2013-07-05 08:38:00,73.0,65.0,30.05,North,354,0.0,-999.0,77,-99.99,,,-99.99,62.000000,,2013-07-05 13:38:00,
2013-07-05 08:55:00,75.0,67.0,30.05,North,354,0.0,-999.0,76,-99.99,,,-99.99,69.000000,,2013-07-05 13:55:00,
2013-07-05 09:06:00,75.0,67.0,30.05,North,2,0.0,-999.0,75,-99.99,,,-99.99,70.000000,,2013-07-05 14:06:00,
2013-07-05 09:25:00,76.0,67.0,30.05,North,4,0.0,-999.0,75,-99.99,,,-99.99,76.000000,,2013-07-05 14:25:00,
2013-07-05 09:36:00,76.0,67.0,30.05,North,6,0.0,-999.0,75,-99.99,,,-99.99,76.000000,,2013-07-05 14:36:00,
2013-07-05 09:54:00,78.0,69.0,30.05,North,2,0.0,-999.0,74,-99.99,,,-99.99,83.000000,,2013-07-05 14:54:00,
2013-07-05 10:05:00,78.0,69.0,30.05,North,5,0.0,-999.0,74,-99.99,,,-99.99,86.000000,,2013-07-05 15:05:00,
2013-07-05 10:14:00,79.0,70.0,30.04,North,8,0.0,-999.0,73,-99.99,,,-99.99,91.000000,,2013-07-05 15:14:00,
2013-07-05 10:23:00,79.0,69.0,30.04,North,360,0.0,-999.0,72,-99.99,,,-99.99,91.000000,,2013-07-05 15:23:00,
2013-07-05 10:33:00,80.0,70.0,30.05,North,360,0.0,-999.0,71,-99.99,,,-99.99,97.000000,,2013-07-05 15:33:00,
2013-07-05 10:43:00,81.0,71.0,30.04,North,3,0.0,-999.0,71,-99.99,,,-99.99,100.000000,,2013-07-05 15:43:00,
2013-07-05 11:01:00,82.0,70.0,30.03,North,5,0.0,-999.0,68,-99.99,,,-99.99,107.000000,,2013-07-05 16:01:00,
2013-07-05 11:11:00,82.0,70.0,30.03,North,10,0.0,-999.0,67,-99.99,,,-99.99,109.000000,,2013-07-05 16:11:00,
2013-07-05 11:22:00,83.0,70.0,30.03,North,3,0.0,-999.0,66,-99.99,,,-99.99,111.000000,,2013-07-05 16:22:00,
2013-07-05 11:33:00,83.0,70.0,30.03,North,8,0.0,-999.0,66,-99.99,,,-99.99,114.000000,,2013-07-05 16:33:00,
2013-07-05 11:44:00,84.0,70.0,30.03,NNE,20,0.0,-999.0,64,-99.99,,,-99.99,120.000000,,2013-07-05 16:44:00,
2013-07-05 11:53:00,84.0,70.0,30.03,NNE,25,0.0,-999.0,63,-99.99,,,-99.99,120.000000,,2013-07-05 16:53:00,
2013-07-05 12:02:00,85.0,70.0,30.03,NNE,15,0.0,-999.0,62,-99.99,,,-99.99,144.000000,,2013-07-05 17:02:00,
2013-07-05 12:12:00,85.0,70.0,30.03,NNE,16,0.0,-999.0,61,-99.99,,,-99.99,802.000000,,2013-07-05 17:12:00,
2013-07-05 12:22:00,86.0,70.0,30.03,NNE,17,0.0,-999.0,60,-99.99,,,-99.99,821.000000,,2013-07-05 17:22:00,
2013-07-05 12:33:00,87.0,71.0,30.02,NNE,12,0.0,-999.0,59,-99.99,,,-99.99,842.000000,,2013-07-05 17:33:00,
2013-07-05 12:43:00,88.0,71.0,30.02,NNE,14,0.0,-999.0,57,-99.99,,,-99.99,861.000000,,2013-07-05 17:43:00,
2013-07-05 12:53:00,88.0,70.0,30.02,NNE,13,0.0,-999.0,56,-99.99,,,-99.99,875.000000,,2013-07-05 17:53:00,
2013-07-05 13:01:00,89.0,71.0,30.01,NNE,15,0.0,-999.0,55,-99.99,,,-99.99,891.000000,,2013-07-05 18:01:00,
2013-07-05 13:11:00,89.0,71.0,30.01,NNE,15,0.0,-999.0,55,-99.99,,,-99.99,904.000000,,2013-07-05 18:11:00,
2013-07-05 13:22:00,89.0,70.0,30.01,NNE,15,0.0,-999.0,53,-99.99,,,-99.99,912.000000,,2013-07-05 18:22:00,
2013-07-05 13:33:00,89.0,70.0,30.00,NNE,16,0.0,-999.0,53,-99.99,,,-99.99,921.000000,,2013-07-05 18:33:00,
2013-07-05 13:43:00,89.0,69.0,30.00,NNE,17,0.0,-999.0,52,-99.99,,,-99.99,933.000000,,2013-07-05 18:43:00,
2013-07-05 13:53:00,90.0,70.0,30.00,NNE,17,0.0,-999.0,52,-99.99,,,-99.99,935.000000,,2013-07-05 18:53:00,
2013-07-05 14:01:00,89.0,68.0,30.00,NNE,17,0.0,-999.0,51,-99.99,,,-99.99,939.000000,,2013-07-05 19:01:00,
2013-07-05 14:12:00,89.0,68.0,30.00,NNE,17,0.0,-999.0,51,-99.99,,,-99.99,939.000000,,2013-07-05 19:12:00,
2013-07-05 14:22:00,89.0,68.0,30.00,NNE,17,0.0,-999.0,51,-99.99,,,-99.99,939.000000,,2013-07-05 19:22:00,
2013-07-05 14:33:00,89.0,68.0,30.00,NNE,17,0.0,-999.0,51,-99.99,,,-99.99,939.000000,,2013-07-05 19:33:00,
2013-07-05 14:42:00,89.0,68.0,30.00,NNE,17,0.0,-999.0,51,-99.99,,,-99.99,939.000000,,2013-07-05 19:42:00,
2013-07-05 16:22:00,93.0,67.0,29.95,NNE,21,0.0,0.0,43,0.00,,,0.00,821.000000,,2013-07-05 21:22:00,
2013-07-05 16:34:00,93.0,67.0,29.95,NNE,20,0.0,-999.0,43,-99.99,,,-99.99,772.000000,,2013-07-05 21:34:00,
2013-07-05 16:43:00,94.0,68.0,29.94,NNE,19,1.0,-999.0,43,-99.99,,,-99.99,759.000000,,2013-07-05 21:43:00,
2013-07-05 16:53:00,94.0,67.0,29.94,NNE,20,0.0,-999.0,42,-99.99,,,-99.99,728.000000,,2013-07-05 21:53:00,
2013-07-05 17:01:00,94.0,67.0,29.93,NNE,19,1.0,-999.0,42,-99.99,,,-99.99,686.000000,,2013-07-05 22:01:00,
2013-07-05 17:11:00,94.0,67.0,29.93,NNE,18,1.0,-999.0,42,-99.99,,,-99.99,647.000000,,2013-07-05 22:11:00,
2013-07-05 17:21:00,94.0,66.0,29.93,NNE,21,0.0,-999.0,40,-99.99,,,-99.99,626.000000,,2013-07-05 22:21:00,
2013-07-05 17:33:00,94.0,66.0,29.93,NNE,14,0.0,-999.0,40,-99.99,,,-99.99,598.000000,,2013-07-05 22:33:00,
2013-07-05 17:43:00,94.0,65.0,29.92,NNE,15,0.0,-999.0,39,-99.99,,,-99.99,568.000000,,2013-07-05 22:43:00,
2013-07-05 17:53:00,94.0,64.0,29.92,NNE,14,0.0,-999.0,38,-99.99,,,-99.99,538.000000,,2013-07-05 22:53:00,
2013-07-05 18:02:00,95.0,65.0,29.92,NNE,14,0.0,-999.0,37,-99.99,,,-99.99,504.000000,,2013-07-05 23:02:00,
2013-07-05 18:11:00,94.0,63.0,29.92,NNE,15,0.0,-999.0,36,-99.99,,,-99.99,473.000000,,2013-07-05 23:11:00,
2013-07-05 18:23:00,94.0,63.0,29.92,NNE,15,0.0,-999.0,36,-99.99,,,-99.99,441.000000,,2013-07-05 23:23:00,
2013-07-05 18:32:00,94.0,64.0,29.92,NNE,13,0.0,-999.0,37,-99.99,,,-99.99,413.000000,,2013-07-05 23:32:00,
2013-07-05 18:43:00,94.0,63.0,29.92,NNE,14,0.0,-999.0,36,-99.99,,,-99.99,376.000000,,2013-07-05 23:43:00,
2013-07-05 18:53:00,94.0,64.0,29.91,NNE,13,0.0,-999.0,37,-99.99,,,-99.99,334.000000,,2013-07-05 23:53:00,
2013-07-05 19:01:00,93.0,64.0,29.92,NNE,14,1.0,-999.0,39,-99.99,,,-99.99,292.000000,,2013-07-06 00:01:00,
2013-07-05 19:11:00,92.0,63.0,29.92,NNE,13,1.0,-999.0,39,-99.99,,,-99.99,253.000000,,2013-07-06 00:11:00,
2013-07-05 19:22:00,92.0,65.0,29.92,NNE,15,0.0,-999.0,41,-99.99,,,-99.99,227.000000,,2013-07-06 00:22:00,
2013-07-05 19:33:00,92.0,65.0,29.92,NNE,12,0.0,-999.0,41,-99.99,,,-99.99,195.000000,,2013-07-06 00:33:00,
2013-07-05 19:42:00,91.0,65.0,29.92,NNE,14,0.0,-999.0,42,-99.99,,,-99.99,162.000000,,2013-07-06 00:42:00,
2013-07-05 19:53:00,91.0,65.0,29.93,NNE,15,0.0,-999.0,42,-99.99,,,-99.99,128.000000,,2013-07-06 00:53:00,
2013-07-05 20:02:00,90.0,64.0,29.92,NNE,14,0.0,-999.0,42,-99.99,,,-99.99,97.000000,,2013-07-06 01:02:00,
2013-07-05 20:12:00,90.0,64.0,29.92,NNE,17,0.0,-999.0,43,-99.99,,,-99.99,51.000000,,2013-07-06 01:12:00,
2013-07-05 20:22:00,89.0,64.0,29.92,NNE,15,0.0,-999.0,44,-99.99,,,-99.99,25.000000,,2013-07-06 01:22:00,
2013-07-05 20:33:00,89.0,64.0,29.92,NNE,25,0.0,-999.0,44,-99.99,,,-99.99,16.000000,,2013-07-06 01:33:00,
2013-07-05 20:42:00,88.0,64.0,29.92,NNE,23,0.0,-999.0,45,-99.99,,,-99.99,5.000000,,2013-07-06 01:42:00,
2013-07-05 20:53:00,88.0,65.0,29.93,NNE,25,0.0,-999.0,46,-99.99,,,-99.99,0.000000,,2013-07-06 01:53:00,
2013-07-05 21:02:00,87.0,64.0,29.93,NNE,21,0.0,-999.0,47,-99.99,,,-99.99,0.000000,,2013-07-06 02:02:00,
2013-07-05 21:12:00,87.0,65.0,29.93,NNE,24,0.0,-999.0,48,-99.99,,,-99.99,0.000000,,2013-07-06 02:12:00,
2013-07-05 21:22:00,86.0,64.0,29.93,NNE,25,0.0,-999.0,48,-99.99,,,-99.99,0.000000,,2013-07-06 02:22:00,
2013-07-05 21:33:00,86.0,65.0,29.93,NNE,26,0.0,-999.0,49,-99.99,,,-99.99,0.000000,,2013-07-06 02:33:00,
2013-07-05 21:43:00,85.0,65.0,29.94,NNE,27,0.0,-999.0,51,-99.99,,,-99.99,0.000000,,2013-07-06 02:43:00,
2013-07-05 21:52:00,85.0,65.0,29.94,NNE,25,0.0,-999.0,51,-99.99,,,-99.99,0.000000,,2013-07-06 02:52:00,
2013-07-05 22:02:00,84.0,64.0,29.95,NNE,25,0.0,-999.0,52,-99.99,,,-99.99,0.000000,,2013-07-06 03:02:00,
2013-07-05 22:11:00,84.0,64.0,29.95,NNE,25,0.0,-999.0,52,-99.99,,,-99.99,0.000000,,2013-07-06 03:11:00,
2013-07-05 22:22:00,84.0,64.0,29.95,NNE,25,0.0,-999.0,52,-99.99,,,-99.99,0.000000,,2013-07-06 03:22:00,
2013-07-05 22:34:00,84.0,64.0,29.96,NNE,24,0.0,-999.0,52,-99.99,,,-99.99,0.000000,,2013-07-06 03:34:00,
2013-07-05 22:43:00,83.0,64.0,29.96,NNE,25,0.0,-999.0,53,-99.99,,,-99.99,0.000000,,2013-07-06 03:43:00,
2013-07-05 22:52:00,83.0,64.0,29.96,NNE,25,0.0,-999.0,53,-99.99,,,-99.99,0.000000,,2013-07-06 03:52:00,
2013-07-05 23:02:00,83.0,65.0,29.96,NNE,19,0.0,-999.0,54,-99.99,,,-99.99,0.000000,,2013-07-06 04:02:00,
2013-07-05 23:12:00,83.0,65.0,29.96,North,10,1.0,-999.0,54,-99.99,,,-99.99,0.000000,,2013-07-06 04:12:00,
2013-07-05 23:22:00,83.0,65.0,29.96,North,10,0.0,-999.0,54,-99.99,,,-99.99,0.000000,,2013-07-06 04:22:00,
2013-07-05 23:33:00,83.0,64.0,29.97,NNE,12,0.0,-999.0,53,-99.99,,,-99.99,0.000000,,2013-07-06 04:33:00,
2013-07-05 23:43:00,83.0,64.0,29.97,North,10,0.0,-999.0,53,-99.99,,,-99.99,0.000000,,2013-07-06 04:43:00,
2013-07-05 23:53:00,82.0,64.0,29.97,North,10,1.0,-999.0,54,-99.99,,,-99.99,0.000000,,2013-07-06 04:53:00,